,,PA_Meas_PMT16A,,PR_Meas_QMR101_102,,RH_Meas_QMH101,,SR_Meas_QMS101,,TA_Meas_QMH101,,GenWind,,GenWind,
time,status,PA,status,PR,status,RH,status,SR,status,TA,status,DirAvg,status,SpdAvg,
2011-09-06, 00:00:05,VALID,917.394,VALID,0,VALID,84.4903,VALID,0,VALID,20.9706,VALID,185,VALID,1.98281,
2011-09-06, 00:01:05,VALID,917.411,VALID,0,VALID,84.3912,VALID,0,VALID,20.9511,VALID,188,VALID,1.8707,
2011-09-06, 00:02:05,VALID,917.417,VALID,0,VALID,83.7508,VALID,0,VALID,20.9706,VALID,174,VALID,1.94453,
2011-09-06, 00:03:05,VALID,917.431,VALID,0,VALID,83.7585,VALID,0,VALID,21.0096,VALID,180,VALID,1.47539,
2011-09-06, 00:04:05,VALID,917.445,VALID,0,VALID,84.0253,VALID,0,VALID,21.0096,VALID,173,VALID,0.664063,
2011-09-06, 00:05:05,VALID,917.443,VALID,0,VALID,83.606,VALID,0,VALID,20.969,VALID,204,VALID,1.93555,
2011-09-06, 00:06:05,VALID,917.458,VALID,0,VALID,84.0558,VALID,0,VALID,20.9901,VALID,182,VALID,1.38437,
2011-09-06, 00:07:05,VALID,917.44,VALID,0,VALID,84.0253,VALID,0,VALID,20.9495,VALID,177,VALID,0.667969,
2011-09-06, 00:08:05,VALID,917.427,VALID,0,VALID,83.8652,VALID,0,VALID,20.9495,VALID,185,VALID,0.921875,
2011-09-06, 00:09:05,VALID,917.46,VALID,0,VALID,83.7966,VALID,0,VALID,20.9511,VALID,186,VALID,0.664844,
2011-09-06, 00:10:05,VALID,917.424,VALID,0,VALID,84.2083,VALID,0,VALID,20.9316,VALID,186,VALID,0.157422,
2011-09-06, 00:11:05,VALID,917.435,VALID,0,VALID,84.1244,VALID,0,VALID,20.912,VALID,186,VALID,0.893359,
2011-09-06, 00:12:05,VALID,917.364,VALID,0,VALID,84.0405,VALID,0,VALID,20.8519,VALID,185,VALID,0.432422,
2011-09-06, 00:13:05,VALID,917.376,VALID,0,VALID,84.2464,VALID,0,VALID,20.8535,VALID,186,VALID,0.401953,
2011-09-06, 00:14:05,VALID,917.328,VALID,0,VALID,84.4903,VALID,0,VALID,20.8129,VALID,186,VALID,0.592578,
2011-09-06, 00:15:05,VALID,917.317,VALID,0,VALID,84.2083,VALID,0,VALID,20.7544,VALID,186,VALID,0.285156,
2011-09-06, 00:16:05,VALID,917.312,VALID,0,VALID,85.1993,VALID,0,VALID,20.795,VALID,186,VALID,0.621875,
2011-09-06, 00:17:05,VALID,917.297,VALID,0,VALID,84.902,VALID,0,VALID,20.717,VALID,186,VALID,0.141797,
2011-09-06, 00:18:05,VALID,917.268,VALID,0,VALID,84.8639,VALID,0,VALID,20.6764,VALID,186,VALID,0.783594,
2011-09-06, 00:19:05,VALID,917.252,VALID,0,VALID,84.3683,VALID,0,VALID,20.6959,VALID,179,VALID,0.899219,
2011-09-06, 00:20:05,VALID,917.225,VALID,0,VALID,84.6123,VALID,0,VALID,20.7154,VALID,179,VALID,0.267578,
2011-09-06, 00:21:05,VALID,917.242,VALID,0,VALID,84.8334,VALID,0,VALID,20.6959,VALID,179,VALID,1.10586,
2011-09-06, 00:22:05,VALID,917.188,VALID,0,VALID,84.3683,VALID,0,VALID,20.7154,VALID,209,VALID,1.20469,
2011-09-06, 00:23:05,VALID,917.191,VALID,0,VALID,84.1778,VALID,0,VALID,20.7154,VALID,209,VALID,1.33555,
2011-09-06, 00:24:05,VALID,917.186,VALID,0,VALID,84.2235,VALID,0,VALID,20.7544,VALID,194,VALID,1.57695,
2011-09-06, 00:25:05,VALID,917.185,VALID,0,VALID,83.3011,VALID,0,VALID,20.8519,VALID,215,VALID,1.72695,
2011-09-06, 00:26:05,VALID,917.166,VALID,0,VALID,83.0266,VALID,0,VALID,21.0096,VALID,169,VALID,1.01133,
2011-09-06, 00:27:05,VALID,917.196,VALID,0,VALID,82.5463,VALID,0,VALID,21.0275,VALID,201,VALID,1.2793,
2011-09-06, 00:28:05,VALID,917.177,VALID,0,VALID,82.7522,VALID,0,VALID,21.0681,VALID,200,VALID,0.775391,
2011-09-06, 00:29:05,VALID,917.148,VALID,0,VALID,82.6302,VALID,0,VALID,21.047,VALID,165,VALID,0.735937,
2011-09-06, 00:30:05,VALID,917.17,VALID,0,VALID,82.7598,VALID,0,VALID,21.0681,VALID,171,VALID,0.862109,
2011-09-06, 00:31:05,VALID,917.15,VALID,0,VALID,83.2325,VALID,0,VALID,21.008,VALID,206,VALID,1.26563,
2011-09-06, 00:32:05,VALID,917.134,VALID,0,VALID,84.1701,VALID,0,VALID,20.8519,VALID,164,VALID,0.892187,
2011-09-06, 00:33:05,VALID,917.128,VALID,0,VALID,83.9262,VALID,0,VALID,20.834,VALID,157,VALID,0.967578,
2011-09-06, 00:34:04,VALID,917.138,VALID,0,VALID,83.4002,VALID,0,VALID,20.8324,VALID,219,VALID,0.953906,
2011-09-06, 00:35:04,VALID,917.136,VALID,0,VALID,83.8881,VALID,0,VALID,20.912,VALID,222,VALID,0.710547,
2011-09-06, 00:36:04,VALID,917.151,VALID,0,VALID,84.0939,VALID,0,VALID,20.8714,VALID,222,VALID,0.114453,
2011-09-06, 00:37:04,VALID,917.136,VALID,0,VALID,84.2845,VALID,0,VALID,20.8129,VALID,222,VALID,0.28125,
2011-09-06, 00:38:04,VALID,917.121,VALID,0,VALID,84.4446,VALID,0,VALID,20.7739,VALID,220,VALID,0.348828,
2011-09-06, 00:39:04,VALID,917.119,VALID,0,VALID,84.8791,VALID,0,VALID,20.6959,VALID,170,VALID,1.00937,
2011-09-06, 00:40:04,VALID,917.144,VALID,0,VALID,85.1459,VALID,0,VALID,20.6374,VALID,170,VALID,0.621094,
2011-09-06, 00:41:04,VALID,917.14,VALID,0,VALID,85.0087,VALID,0,VALID,20.6374,VALID,174,VALID,1.5668,
2011-09-06, 00:42:04,VALID,917.135,VALID,0,VALID,84.6199,VALID,0,VALID,20.6764,VALID,120,VALID,2.54922,
2011-09-06, 00:43:04,VALID,917.119,VALID,0,VALID,83.8652,VALID,0,VALID,20.8519,VALID,128,VALID,2.52891,
2011-09-06, 00:44:04,VALID,917.086,VALID,0,VALID,83.3392,VALID,0,VALID,21.0291,VALID,94,VALID,2.44922,
2011-09-06, 00:45:04,VALID,917.082,VALID,0,VALID,83.4078,VALID,0,VALID,21.0486,VALID,164,VALID,1.52344,
2011-09-06, 00:46:04,VALID,917.017,VALID,0,VALID,83.3239,VALID,0,VALID,21.1071,VALID,117,VALID,2.60352,
2011-09-06, 00:47:04,VALID,917.016,VALID,0,VALID,83.1715,VALID,0,VALID,21.1852,VALID,120,VALID,1.90781,
2011-09-06, 00:48:04,VALID,916.96,VALID,0,VALID,82.6378,VALID,0,VALID,21.2616,VALID,86,VALID,2.09219,
2011-09-06, 00:49:04,VALID,916.953,VALID,0,VALID,82.6912,VALID,0,VALID,21.2827,VALID,107,VALID,2.28984,
2011-09-06, 00:50:04,VALID,917,VALID,0,VALID,83.0647,VALID,0,VALID,21.2827,VALID,98,VALID,2.67422,
2011-09-06, 00:51:04,VALID,916.977,VALID,0,VALID,83.2401,VALID,0,VALID,21.2437,VALID,86,VALID,3.21797,
2011-09-06, 00:52:04,VALID,916.956,VALID,0,VALID,83.2248,VALID,0,VALID,21.3022,VALID,66,VALID,2.6125,
2011-09-06, 00:53:04,VALID,916.935,VALID,0,VALID,82.9199,VALID,0,VALID,21.3006,VALID,94,VALID,2.87578,
2011-09-06, 00:54:04,VALID,916.956,VALID,0,VALID,82.6912,VALID,0,VALID,21.3396,VALID,95,VALID,2.62188,
2011-09-06, 00:55:04,VALID,916.932,VALID,0,VALID,83.0952,VALID,0,VALID,21.3201,VALID,94,VALID,2.76563,
2011-09-06, 00:56:04,VALID,916.942,VALID,0,VALID,82.9656,VALID,0,VALID,21.3006,VALID,101,VALID,2.875,
2011-09-06, 00:57:04,VALID,916.9,VALID,0,VALID,83.2325,VALID,0,VALID,21.3412,VALID,92,VALID,3.31562,
2011-09-06, 00:58:04,VALID,916.94,VALID,0,VALID,83.4078,VALID,0,VALID,21.3006,VALID,100,VALID,1.42461,
2011-09-06, 00:59:04,VALID,916.876,VALID,0,VALID,83.3468,VALID,0,VALID,21.3022,VALID,109,VALID,1.74023,
2011-09-06, 01:00:04,VALID,916.934,VALID,0,VALID,82.8284,VALID,0,VALID,21.3591,VALID,122,VALID,3.48164,
2011-09-06, 01:01:04,VALID,916.885,VALID,0,VALID,82.2719,VALID,0,VALID,21.5168,VALID,80,VALID,3.66484,
2011-09-06, 01:02:04,VALID,916.909,VALID,0,VALID,81.8907,VALID,0,VALID,21.5754,VALID,123,VALID,3.11641,
2011-09-06, 01:03:04,VALID,916.884,VALID,0,VALID,81.5934,VALID,0,VALID,21.6339,VALID,125,VALID,2.93242,
2011-09-06, 01:04:04,VALID,916.875,VALID,0,VALID,81.9593,VALID,0,VALID,21.6128,VALID,103,VALID,1.01133,
2011-09-06, 01:05:04,VALID,916.87,VALID,0,VALID,82.1042,VALID,0,VALID,21.5542,VALID,132,VALID,1.38359,
2011-09-06, 01:06:04,VALID,916.799,VALID,0,VALID,82.2185,VALID,0,VALID,21.5559,VALID,146,VALID,1.26094,
2011-09-06, 01:07:04,VALID,916.803,VALID,0,VALID,82.4549,VALID,0,VALID,21.4957,VALID,161,VALID,1.16406,
2011-09-06, 01:08:04,VALID,916.765,VALID,0,VALID,82.7903,VALID,0,VALID,21.4567,VALID,142,VALID,1.22578,
2011-09-06, 01:09:04,VALID,916.773,VALID,0,VALID,82.8742,VALID,0,VALID,21.3786,VALID,173,VALID,0.599609,
2011-09-06, 01:10:04,VALID,916.795,VALID,0,VALID,82.7217,VALID,0,VALID,21.3803,VALID,173,VALID,0.63125,
2011-09-06, 01:11:04,VALID,916.756,VALID,0,VALID,83.2401,VALID,0,VALID,21.3803,VALID,173,VALID,0.402344,
2011-09-06, 01:12:04,VALID,916.779,VALID,0,VALID,83.6746,VALID,0,VALID,21.3217,VALID,173,VALID,0.522266,
2011-09-06, 01:13:04,VALID,916.806,VALID,0,VALID,83.8423,VALID,0,VALID,21.2226,VALID,123,VALID,1.37109,
2011-09-06, 01:14:04,VALID,916.758,VALID,0,VALID,82.9733,VALID,0,VALID,21.2047,VALID,123,VALID,0.717188,
2011-09-06, 01:15:04,VALID,916.772,VALID,0,VALID,83.3087,VALID,0,VALID,21.2616,VALID,200,VALID,1.13477,
2011-09-06, 01:16:04,VALID,916.765,VALID,0,VALID,83.5374,VALID,0,VALID,21.2632,VALID,206,VALID,0.427734,
2011-09-06, 01:17:04,VALID,916.734,VALID,0,VALID,83.7508,VALID,0,VALID,21.2242,VALID,206,VALID,0.791016,
2011-09-06, 01:18:04,VALID,916.735,VALID,0,VALID,84.2083,VALID,0,VALID,21.1445,VALID,203,VALID,1.03008,
2011-09-06, 01:19:04,VALID,916.681,VALID,0,VALID,83.8195,VALID,0,VALID,21.1071,VALID,203,VALID,2.39375,
2011-09-06, 01:20:04,VALID,916.683,VALID,0,VALID,83.6517,VALID,0,VALID,21.1266,VALID,196,VALID,1.06016,
2011-09-06, 01:21:04,VALID,916.669,VALID,0,VALID,83.7661,VALID,0,VALID,21.1657,VALID,196,VALID,1.19062,
2011-09-06, 01:22:04,VALID,916.667,VALID,0,VALID,83.5679,VALID,0,VALID,21.1445,VALID,196,VALID,1.29492,
2011-09-06, 01:23:04,VALID,916.692,VALID,0,VALID,83.3697,VALID,0,VALID,21.2047,VALID,187,VALID,1.06484,
2011-09-06, 01:24:04,VALID,916.667,VALID,0,VALID,82.9275,VALID,0,VALID,21.2632,VALID,162,VALID,1.27461,
2011-09-06, 01:25:04,VALID,916.669,VALID,0,VALID,83.0495,VALID,0,VALID,21.2827,VALID,151,VALID,1.21563,
2011-09-06, 01:26:04,VALID,916.651,VALID,0,VALID,82.8742,VALID,0,VALID,21.2616,VALID,175,VALID,0.664453,
2011-09-06, 01:27:04,VALID,916.639,VALID,0,VALID,83.0419,VALID,0,VALID,21.2632,VALID,175,VALID,0.994531,
2011-09-06, 01:28:04,VALID,916.653,VALID,0,VALID,83.3239,VALID,0,VALID,21.2031,VALID,175,VALID,0.663672,
2011-09-06, 01:29:04,VALID,916.614,VALID,0,VALID,83.1105,VALID,0,VALID,21.164,VALID,155,VALID,0.926562,
2011-09-06, 01:30:04,VALID,916.589,VALID,0,VALID,83.3392,VALID,0,VALID,21.1852,VALID,139,VALID,1.21523,
2011-09-06, 01:31:04,VALID,916.6,VALID,0,VALID,83.6136,VALID,0,VALID,21.125,VALID,132,VALID,0.778125,
2011-09-06, 01:32:04,VALID,916.521,VALID,0,VALID,82.1499,VALID,0,VALID,21.0876,VALID,136,VALID,1.2375,
2011-09-06, 01:33:04,VALID,916.533,VALID,0,VALID,82.7827,VALID,0,VALID,21.1445,VALID,94,VALID,1.33125,
2011-09-06, 01:34:04,VALID,916.529,VALID,0,VALID,82.9351,VALID,0,VALID,21.1461,VALID,75,VALID,1.11992,
2011-09-06, 01:35:04,VALID,916.54,VALID,0,VALID,83.8195,VALID,0,VALID,21.0275,VALID,75,VALID,0.747656,
2011-09-06, 01:36:04,VALID,916.54,VALID,0,VALID,81.8374,VALID,0,VALID,21.0876,VALID,111,VALID,2.00117,
2011-09-06, 01:37:04,VALID,916.523,VALID,0,VALID,82.1499,VALID,0,VALID,21.1055,VALID,94,VALID,2.62891,
2011-09-06, 01:38:04,VALID,916.432,VALID,0,VALID,80.7472,VALID,0,VALID,21.1836,VALID,52,VALID,3.24336,
2011-09-06, 01:39:04,VALID,916.491,VALID,0,VALID,80.3508,VALID,0,VALID,21.3022,VALID,78,VALID,2.89687,
2011-09-06, 01:40:04,VALID,916.44,VALID,0,VALID,79.8553,VALID,0,VALID,21.2616,VALID,44,VALID,3.27305,
2011-09-06, 01:41:04,VALID,916.447,VALID,0,VALID,79.9239,VALID,0,VALID,21.3608,VALID,86,VALID,0.796875,
2011-09-06, 01:42:04,VALID,916.427,VALID,0,VALID,80.1602,VALID,0,VALID,21.3786,VALID,76,VALID,1.65273,
2011-09-06, 01:43:04,VALID,916.431,VALID,0,VALID,79.6266,VALID,0,VALID,21.3396,VALID,101,VALID,1.1125,
2011-09-06, 01:44:04,VALID,916.413,VALID,0,VALID,79.7104,VALID,0,VALID,21.3201,VALID,95,VALID,1.07891,
2011-09-06, 01:45:04,VALID,916.417,VALID,0,VALID,79.8553,VALID,0,VALID,21.3217,VALID,122,VALID,1.8918,
2011-09-06, 01:46:04,VALID,916.414,VALID,0,VALID,80.3737,VALID,0,VALID,21.2827,VALID,72,VALID,0.633203,
2011-09-06, 01:47:04,VALID,916.394,VALID,0,VALID,80.2288,VALID,0,VALID,21.3022,VALID,147,VALID,0.992969,
2011-09-06, 01:48:04,VALID,916.348,VALID,0,VALID,80.5719,VALID,0,VALID,21.2632,VALID,93,VALID,0.642969,
2011-09-06, 01:49:04,VALID,916.368,VALID,0,VALID,80.3737,VALID,0,VALID,21.2031,VALID,124,VALID,0.910156,
2011-09-06, 01:50:04,VALID,916.322,VALID,0,VALID,81.3876,VALID,0,VALID,21.2226,VALID,191,VALID,2.15859,
2011-09-06, 01:51:04,VALID,916.308,VALID,0,VALID,82.3939,VALID,0,VALID,21.1852,VALID,185,VALID,1.16914,
2011-09-06, 01:52:04,VALID,916.283,VALID,0,VALID,83.08,VALID,0,VALID,21.0486,VALID,187,VALID,0.792188,
2011-09-06, 01:53:04,VALID,916.26,VALID,0,VALID,82.9199,VALID,0,VALID,20.9105,VALID,187,VALID,1.19648,
2011-09-06, 01:54:04,VALID,916.255,VALID,0,VALID,83.202,VALID,0,VALID,20.8925,VALID,184,VALID,1.47734,
2011-09-06, 01:55:04,VALID,916.238,VALID,0,VALID,83.5984,VALID,0,VALID,20.8925,VALID,178,VALID,1.50547,
2011-09-06, 01:56:04,VALID,916.26,VALID,0,VALID,84.1244,VALID,0,VALID,20.834,VALID,156,VALID,0.776953,
2011-09-06, 01:57:04,VALID,916.269,VALID,0,VALID,84.3912,VALID,0,VALID,20.756,VALID,172,VALID,1.72109,
2011-09-06, 01:58:04,VALID,916.223,VALID,0,VALID,84.4979,VALID,0,VALID,20.6959,VALID,173,VALID,1.78359,
2011-09-06, 01:59:04,VALID,916.227,VALID,0,VALID,84.658,VALID,0,VALID,20.6975,VALID,179,VALID,2.14453,
2011-09-06, 02:00:04,VALID,916.221,VALID,0,VALID,84.3455,VALID,0,VALID,20.6975,VALID,186,VALID,0.986719,
2011-09-06, 02:01:04,VALID,916.253,VALID,0,VALID,83.2248,VALID,0,VALID,20.756,VALID,151,VALID,2.03945,
2011-09-06, 02:02:04,VALID,916.209,VALID,0,VALID,83.3316,VALID,0,VALID,20.834,VALID,184,VALID,1.47969,
2011-09-06, 02:03:04,VALID,916.213,VALID,0,VALID,83.4078,VALID,0,VALID,20.8145,VALID,157,VALID,1.35742,
2011-09-06, 02:04:04,VALID,916.199,VALID,0,VALID,82.9809,VALID,0,VALID,20.8145,VALID,172,VALID,1.49727,
2011-09-06, 02:05:04,VALID,916.18,VALID,0,VALID,83.0266,VALID,0,VALID,20.834,VALID,171,VALID,0.90625,
2011-09-06, 02:06:04,VALID,916.172,VALID,0,VALID,83.2325,VALID,0,VALID,20.8145,VALID,148,VALID,1.14414,
2011-09-06, 02:07:04,VALID,916.156,VALID,0,VALID,83.3468,VALID,0,VALID,20.756,VALID,157,VALID,0.647266,
2011-09-06, 02:08:04,VALID,916.14,VALID,0,VALID,83.1867,VALID,0,VALID,20.7739,VALID,170,VALID,0.875391,
2011-09-06, 02:09:04,VALID,916.143,VALID,0,VALID,83.1867,VALID,0,VALID,20.7755,VALID,179,VALID,1.20664,
2011-09-06, 02:10:04,VALID,916.122,VALID,0,VALID,83.1334,VALID,0,VALID,20.7154,VALID,168,VALID,1.32539,
2011-09-06, 02:11:04,VALID,916.181,VALID,0,VALID,83.5374,VALID,0,VALID,20.7154,VALID,187,VALID,0.626172,
2011-09-06, 02:12:04,VALID,916.169,VALID,0,VALID,83.4688,VALID,0,VALID,20.6975,VALID,158,VALID,1.56758,
2011-09-06, 02:13:04,VALID,916.165,VALID,0,VALID,82.8894,VALID,0,VALID,20.756,VALID,175,VALID,1.88437,
2011-09-06, 02:14:04,VALID,916.189,VALID,0,VALID,82.554,VALID,0,VALID,20.8129,VALID,170,VALID,1.00039,
2011-09-06, 02:15:04,VALID,916.186,VALID,0,VALID,81.8907,VALID,0,VALID,20.873,VALID,173,VALID,1.76367,
2011-09-06, 02:16:04,VALID,916.15,VALID,0,VALID,81.4333,VALID,0,VALID,20.891,VALID,178,VALID,1.86875,
2011-09-06, 02:17:04,VALID,916.166,VALID,0,VALID,81.197,VALID,0,VALID,20.9901,VALID,183,VALID,1.70313,
2011-09-06, 02:18:04,VALID,916.18,VALID,0,VALID,81.3342,VALID,0,VALID,21.0096,VALID,186,VALID,1.95508,
2011-09-06, 02:19:04,VALID,916.198,VALID,0,VALID,81.1741,VALID,0,VALID,20.9901,VALID,130,VALID,1.05859,
2011-09-06, 02:20:04,VALID,916.167,VALID,0,VALID,81.38,VALID,0,VALID,20.9706,VALID,173,VALID,1.36133,
2011-09-06, 02:21:04,VALID,916.189,VALID,0,VALID,81.136,VALID,0,VALID,20.9511,VALID,157,VALID,1.02227,
2011-09-06, 02:22:04,VALID,916.151,VALID,0,VALID,81.7383,VALID,0.107441,VALID,20.93,VALID,190,VALID,1.5,
2011-09-06, 02:23:04,VALID,916.128,VALID,0,VALID,81.0217,VALID,0,VALID,20.8925,VALID,184,VALID,1.33203,
2011-09-06, 02:24:04,VALID,916.146,VALID,0,VALID,81.5782,VALID,0,VALID,20.8519,VALID,181,VALID,1.05313,
2011-09-06, 02:25:04,VALID,916.121,VALID,0,VALID,81.5705,VALID,0,VALID,20.8925,VALID,168,VALID,1.48086,
2011-09-06, 02:26:04,VALID,916.062,VALID,0,VALID,80.9912,VALID,0,VALID,20.873,VALID,190,VALID,1.90664,
2011-09-06, 02:27:04,VALID,916.079,VALID,0,VALID,80.6557,VALID,0,VALID,20.891,VALID,187,VALID,1.07813,
2011-09-06, 02:28:04,VALID,916.044,VALID,0,VALID,81.1513,VALID,0,VALID,20.9316,VALID,187,VALID,0.335156,
2011-09-06, 02:29:04,VALID,916.058,VALID,0,VALID,81.2199,VALID,0,VALID,20.912,VALID,186,VALID,1.34023,
2011-09-06, 02:30:04,VALID,916.011,VALID,0,VALID,80.7853,VALID,0,VALID,20.8519,VALID,183,VALID,1.43945,
2011-09-06, 02:31:04,VALID,916.011,VALID,0,VALID,81.5477,VALID,0,VALID,20.8324,VALID,184,VALID,0.963672,
2011-09-06, 02:32:04,VALID,916.078,VALID,0,VALID,81.2199,VALID,0.107441,VALID,20.7739,VALID,192,VALID,1.0418,
2011-09-06, 02:33:04,VALID,916.012,VALID,0,VALID,81.1436,VALID,0,VALID,20.7544,VALID,171,VALID,1.3082,
2011-09-06, 02:34:04,VALID,916.018,VALID,0,VALID,80.61,VALID,0,VALID,20.7544,VALID,171,VALID,1.65195,
2011-09-06, 02:35:04,VALID,915.991,VALID,0,VALID,80.8311,VALID,0,VALID,20.795,VALID,186,VALID,1.38047,
2011-09-06, 02:36:04,VALID,915.995,VALID,0,VALID,80.488,VALID,0,VALID,20.7934,VALID,135,VALID,1.10508,
2011-09-06, 02:37:04,VALID,916.005,VALID,0,VALID,80.0306,VALID,0,VALID,20.8925,VALID,171,VALID,1.26055,
2011-09-06, 02:38:04,VALID,915.985,VALID,0,VALID,80.6481,VALID,0.107441,VALID,20.8714,VALID,192,VALID,0.352344,
2011-09-06, 02:39:04,VALID,915.975,VALID,0,VALID,79.7333,VALID,0,VALID,20.8535,VALID,175,VALID,1.47383,
2011-09-06, 02:40:04,VALID,915.988,VALID,0,VALID,79.8705,VALID,0,VALID,20.891,VALID,175,VALID,0.550781,
2011-09-06, 02:41:04,VALID,916.003,VALID,0,VALID,80.3508,VALID,0,VALID,20.912,VALID,175,VALID,0.639844,
2011-09-06, 02:42:04,VALID,915.99,VALID,0,VALID,79.7943,VALID,0,VALID,20.8535,VALID,177,VALID,1.0707,
2011-09-06, 02:43:04,VALID,915.966,VALID,0,VALID,79.9544,VALID,0,VALID,20.8714,VALID,178,VALID,0.307813,
2011-09-06, 02:44:04,VALID,916.005,VALID,0,VALID,80.6252,VALID,0,VALID,20.8535,VALID,178,VALID,0.986719,
2011-09-06, 02:45:04,VALID,915.955,VALID,0,VALID,80.145,VALID,0,VALID,20.795,VALID,178,VALID,0.817578,
2011-09-06, 02:46:04,VALID,915.975,VALID,0,VALID,80.4042,VALID,0,VALID,20.795,VALID,185,VALID,1.28711,
2011-09-06, 02:47:04,VALID,915.979,VALID,0,VALID,81.1894,VALID,0,VALID,20.6959,VALID,182,VALID,0.980078,
2011-09-06, 02:48:04,VALID,915.947,VALID,0,VALID,80.7472,VALID,0,VALID,20.6975,VALID,178,VALID,1.29258,
2011-09-06, 02:49:04,VALID,915.936,VALID,0,VALID,80.8463,VALID,0,VALID,20.6585,VALID,145,VALID,0.81875,
2011-09-06, 02:50:04,VALID,915.912,VALID,0,VALID,80.7853,VALID,0,VALID,20.6179,VALID,153,VALID,1.09414,
2011-09-06, 02:51:04,VALID,915.866,VALID,0,VALID,80.4118,VALID,0,VALID,20.5984,VALID,112,VALID,1.82187,
2011-09-06, 02:52:04,VALID,915.929,VALID,0,VALID,79.779,VALID,0,VALID,20.6585,VALID,139,VALID,1.62109,
2011-09-06, 02:53:04,VALID,915.888,VALID,0,VALID,79.8324,VALID,0,VALID,20.6764,VALID,163,VALID,1.35938,
2011-09-06, 02:54:04,VALID,915.899,VALID,0,VALID,79.7562,VALID,0,VALID,20.6764,VALID,165,VALID,0.982031,
2011-09-06, 02:55:04,VALID,915.918,VALID,0,VALID,80.0611,VALID,0,VALID,20.6569,VALID,166,VALID,1.95508,
2011-09-06, 02:56:04,VALID,915.947,VALID,0,VALID,80.0535,VALID,0,VALID,20.6585,VALID,166,VALID,1.62344,
2011-09-06, 02:57:04,VALID,915.956,VALID,0,VALID,79.0853,VALID,0,VALID,20.6374,VALID,177,VALID,1.56992,
2011-09-06, 02:58:04,VALID,915.95,VALID,0,VALID,80.3432,VALID,0,VALID,20.678,VALID,151,VALID,0.869922,
2011-09-06, 02:59:04,VALID,915.945,VALID,0,VALID,80.3356,VALID,0,VALID,20.639,VALID,179,VALID,1.51367,
2011-09-06, 03:00:04,VALID,915.951,VALID,0,VALID,79.8477,VALID,0,VALID,20.6194,VALID,150,VALID,1.16133,
2011-09-06, 03:01:04,VALID,915.941,VALID,0,VALID,79.0167,VALID,0,VALID,20.6179,VALID,129,VALID,1.36328,
2011-09-06, 03:02:04,VALID,915.949,VALID,0,VALID,79.4894,VALID,0,VALID,20.6374,VALID,169,VALID,1.04922,
2011-09-06, 03:03:04,VALID,915.956,VALID,0,VALID,79.1311,VALID,0,VALID,20.678,VALID,135,VALID,1.67617,
2011-09-06, 03:04:04,VALID,915.974,VALID,0,VALID,79.4894,VALID,0,VALID,20.717,VALID,169,VALID,0.635156,
2011-09-06, 03:05:04,VALID,915.954,VALID,0,VALID,79.5808,VALID,0,VALID,20.6179,VALID,144,VALID,1.14961,
2011-09-06, 03:06:04,VALID,915.969,VALID,0,VALID,79.7028,VALID,0,VALID,20.5999,VALID,149,VALID,0.983594,
2011-09-06, 03:07:04,VALID,915.989,VALID,0,VALID,79.3369,VALID,0,VALID,20.5999,VALID,176,VALID,1.6125,
2011-09-06, 03:08:04,VALID,915.954,VALID,0,VALID,79.9086,VALID,0,VALID,20.5999,VALID,170,VALID,1.04102,
2011-09-06, 03:09:04,VALID,915.969,VALID,0,VALID,80.1069,VALID,0,VALID,20.5399,VALID,170,VALID,1.04062,
2011-09-06, 03:10:04,VALID,915.977,VALID,0,VALID,80.4728,VALID,0,VALID,20.5219,VALID,170,VALID,0.924609,
2011-09-06, 03:11:04,VALID,915.916,VALID,0,VALID,79.5122,VALID,0,VALID,20.4634,VALID,170,VALID,1.47695,
2011-09-06, 03:12:04,VALID,915.923,VALID,0,VALID,80.1602,VALID,0,VALID,20.5024,VALID,170,VALID,0.594531,
2011-09-06, 03:13:04,VALID,915.95,VALID,0,VALID,77.492,VALID,0,VALID,20.5219,VALID,164,VALID,2.80312,
2011-09-06, 03:14:04,VALID,915.932,VALID,0,VALID,79.375,VALID,0.107441,VALID,20.6194,VALID,160,VALID,1.59063,
2011-09-06, 03:15:04,VALID,915.935,VALID,0,VALID,79.84,VALID,0,VALID,20.582,VALID,160,VALID,0.73125,
2011-09-06, 03:16:04,VALID,915.931,VALID,0,VALID,79.8858,VALID,0,VALID,20.5219,VALID,135,VALID,1.60625,
2011-09-06, 03:17:04,VALID,915.933,VALID,0,VALID,79.9239,VALID,0,VALID,20.4634,VALID,159,VALID,1.16445,
2011-09-06, 03:18:04,VALID,915.934,VALID,0,VALID,78.8337,VALID,0.107441,VALID,20.4439,VALID,180,VALID,2.05039,
2011-09-06, 03:19:04,VALID,915.957,VALID,0,VALID,79.9773,VALID,0,VALID,20.4829,VALID,156,VALID,1.17813,
2011-09-06, 03:20:04,VALID,915.956,VALID,0,VALID,80.3813,VALID,0,VALID,20.4049,VALID,156,VALID,0.870703,
2011-09-06, 03:21:04,VALID,915.969,VALID,0,VALID,80.4728,VALID,0,VALID,20.3854,VALID,158,VALID,1.07539,
2011-09-06, 03:22:04,VALID,915.937,VALID,0,VALID,80.2593,VALID,0,VALID,20.3659,VALID,176,VALID,1.91406,
2011-09-06, 03:23:04,VALID,915.959,VALID,0,VALID,80.2593,VALID,0,VALID,20.4049,VALID,170,VALID,1.32031,
2011-09-06, 03:24:04,VALID,915.937,VALID,0,VALID,80.3965,VALID,0,VALID,20.4244,VALID,159,VALID,0.671875,
2011-09-06, 03:25:04,VALID,915.96,VALID,0,VALID,80.732,VALID,0,VALID,20.3659,VALID,167,VALID,0.583984,
2011-09-06, 03:26:04,VALID,915.981,VALID,0,VALID,80.488,VALID,0,VALID,20.3269,VALID,161,VALID,1.0793,
2011-09-06, 03:27:04,VALID,915.945,VALID,0,VALID,80.0001,VALID,0,VALID,20.3659,VALID,168,VALID,1.62539,
2011-09-06, 03:28:04,VALID,915.946,VALID,0,VALID,80.4957,VALID,0,VALID,20.3253,VALID,160,VALID,1.21523,
2011-09-06, 03:29:04,VALID,915.968,VALID,0,VALID,80.6329,VALID,0,VALID,20.3464,VALID,140,VALID,1.44023,
2011-09-06, 03:30:04,VALID,915.924,VALID,0,VALID,80.1831,VALID,0,VALID,20.3074,VALID,177,VALID,2.02813,
2011-09-06, 03:31:04,VALID,915.915,VALID,0,VALID,79.2835,VALID,0,VALID,20.3854,VALID,192,VALID,2.15039,
2011-09-06, 03:32:04,VALID,915.968,VALID,0,VALID,78.8642,VALID,0,VALID,20.4439,VALID,166,VALID,2.39609,
2011-09-06, 03:33:04,VALID,915.934,VALID,0,VALID,78.4831,VALID,0,VALID,20.5414,VALID,157,VALID,1.62852,
2011-09-06, 03:34:04,VALID,915.954,VALID,0,VALID,78.1476,VALID,0,VALID,20.6194,VALID,175,VALID,1.37656,
2011-09-06, 03:35:04,VALID,915.925,VALID,0,VALID,77.9799,VALID,0,VALID,20.6194,VALID,185,VALID,1.33555,
2011-09-06, 03:36:04,VALID,915.951,VALID,0,VALID,77.4082,VALID,0,VALID,20.6585,VALID,172,VALID,2.09141,
2011-09-06, 03:37:04,VALID,915.9,VALID,0,VALID,77.2481,VALID,0,VALID,20.717,VALID,195,VALID,1.8918,
2011-09-06, 03:38:04,VALID,915.889,VALID,0,VALID,76.7373,VALID,0.107441,VALID,20.756,VALID,161,VALID,2.67383,
2011-09-06, 03:39:04,VALID,915.923,VALID,0,VALID,77.0804,VALID,0,VALID,20.834,VALID,190,VALID,1.55234,
2011-09-06, 03:40:04,VALID,915.883,VALID,0,VALID,77.0346,VALID,0,VALID,20.8535,VALID,189,VALID,1.03828,
2011-09-06, 03:41:04,VALID,915.899,VALID,0,VALID,77.1566,VALID,0.107441,VALID,20.834,VALID,170,VALID,1.65352,
2011-09-06, 03:42:04,VALID,915.896,VALID,0,VALID,77.4615,VALID,0,VALID,20.8145,VALID,192,VALID,1.70078,
2011-09-06, 03:43:04,VALID,915.857,VALID,0,VALID,77.6216,VALID,0,VALID,20.7755,VALID,190,VALID,1.325,
2011-09-06, 03:44:04,VALID,915.903,VALID,0,VALID,78.1629,VALID,0,VALID,20.7365,VALID,193,VALID,1.18711,
2011-09-06, 03:45:04,VALID,915.911,VALID,0,VALID,78.3916,VALID,0,VALID,20.678,VALID,151,VALID,1.76016,